Theta_e
325 326 328 331 339 344 341 343 346 349 352 346 345 342 341 341 344 347 354 356 354 352 352 348 350 348 344 343 346 343 340 336 336 336 335 335 338 337 338 338 336 337 338
322 325 331 338 337 343 345 347 346 347 349 347 347 347 346 342 344 351 354 355 354 353 351 348 347 347 345 346 345 342 336 334 338 333 332 325 330 335 336 336 337 335 335
318 324 325 332 338 337 340 342 346 347 349 348 348 350 350 352 352 354 354 354 353 353 351 348 348 347 346 343 344 341 338 332 335 337 330 322 319 324 332 334 334 334 333
318 320 324 331 335 337 340 344 345 344 346 349 347 345 340 338 344 351 350 352 353 351 349 348 348 348 345 344 342 342 338 339 333 335 335 334 329 321 320 329 331 333 332
318 318 321 325 324 327 331 333 341 343 345 345 347 343 346 346 354 352 354 351 351 350 348 348 349 347 346 347 343 343 342 340 335 333 331 331 330 329 323 319 324 330 331
316 319 321 322 323 325 326 329 335 338 343 347 349 348 348 345 347 348 350 347 347 347 347 347 346 349 347 346 345 345 343 339 338 336 332 329 326 324 324 321 322 323 327
316 317 319 320 322 324 328 331 338 337 344 344 350 347 348 349 357 350 348 344 343 344 345 345 345 347 348 347 345 343 340 340 337 335 333 332 330 331 327 324 322 321 325
315 317 320 322 321 326 327 326 329 335 343 343 344 350 351 352 355 350 347 343 342 343 345 346 348 347 347 345 345 342 341 338 337 336 334 332 331 330 330 326 323 318 320
318 317 319 323 326 331 339 336 329 334 337 338 347 349 352 354 352 352 349 346 346 346 346 348 347 345 345 343 343 341 338 337 337 335 334 332 332 332 330 331 329 322 315
314 316 319 324 334 336 340 340 335 336 338 348 350 350 354 355 355 353 349 346 349 348 347 346 346 344 343 342 341 339 337 336 336 334 333 333 332 334 333 332 330 327 322
313 315 319 328 332 337 337 337 337 343 346 348 349 351 351 354 353 351 350 347 348 347 346 344 342 341 342 340 338 337 335 334 334 333 331 332 333 331 332 332 329 328 326
312 313 325 331 330 332 335 336 340 343 347 349 349 351 346 346 349 346 346 345 344 343 341 341 339 338 338 336 336 334 333 332 331 332 330 328 332 330 329 330 327 328 328
310 313 326 329 333 336 334 335 343 344 346 346 343 342 342 344 345 344 344 344 342 342 339 339 337 336 336 334 334 334 333 333 332 331 329 326 327 326 326 328 327 328 329
310 314 328 329 336 337 336 339 339 341 341 341 340 340 342 343 343 343 342 342 339 339 339 338 335 333 333 334 334 333 333 333 333 330 326 325 325 326 326 328 329 327 326
308 312 326 330 334 336 337 337 337 338 338 337 337 340 342 342 341 340 340 339 340 338 336 336 333 333 330 329 334 335 332 332 328 328 326 324 324 322 321 326 329 326 326
307 311 318 328 333 334 331 336 334 335 336 335 337 340 339 338 338 338 338 339 337 338 333 334 333 327 324 305 310 323 333 333 329 326 324 326 322 321 314 317 317 325 324
307 311 316 326 331 332 335 334 333 335 334 336 336 335 335 334 335 336 336 336 334 337 335 334 333 330 322 304 308 312 334 332 329 326 323 325 328 324 325 313 314 315 315
309 312 325 327 331 335 335 333 333 334 334 333 332 332 332 333 334 334 333 336 336 337 335 334 333 330 320 307 307 308 334 331 329 326 325 325 327 327 327 327 326 326 324
311 318 325 327 333 333 335 333 331 332 330 330 330 331 333 333 332 332 334 336 335 334 334 335 333 331 324 304 305 316 332 330 327 326 324 324 326 308 307 327 325 322 318
319 321 324 325 333 332 336 333 331 330 329 329 330 333 334 333 332 334 336 336 335 335 335 334 333 320 324 303 303 315 329 327 326 325 321 308 317 302 304 327 325 319 318
316 319 324 326 328 333 336 332 330 329 330 330 331 334 334 335 335 336 336 334 334 334 333 331 330 330 327 314 304 304 330 327 324 321 318 316 299 303 303 314 324 319 320
315 319 325 327 333 333 334 331 329 331 331 330 333 333 334 331 334 335 335 335 334 332 331 328 327 330 327 311 303 303 308 318 324 322 319 310 297 300 303 311 301 304 313
316 321 325 325 331 333 334 331 331 332 330 333 333 333 334 333 334 334 334 332 332 331 329 325 324 325 326 320 301 301 305 307 322 320 307 296 297 299 303 300 302 308 320
317 325 326 325 327 333 334 331 332 332 334 333 331 334 334 331 333 333 333 334 332 331 330 329 325 324 326 325 323 318 314 304 305 304 306 304 304 305 307 309 313 323 320
318 326 325 327 327 333 332 331 331 333 334 333 331 331 329 331 326 321 319 332 320 325 331 332 327 325 324 323 318 320 323 319 309 312 315 314 313 315 318 317 320 320 321
320 322 326 328 329 331 327 329 332 334 333 330 331 328 329 329 328 328 321 296 297 296 300 301 318 314 308 299 300 300 300 300 299 316 314 313 313 313 316 317 319 319 317
Wind_Speed
21 23 19 18 10 9 9 9 8 6 3 3 4 5 6 5 7 7 7 7 9 10 10 9 6 7 6 6 5 5 5 4 3 2 2 3 6 8 5 4 3 4 5
21 19 11 7 11 10 9 9 9 8 6 4 5 4 4 7 8 6 6 7 9 9 9 9 8 8 5 6 6 6 3 3 3 3 3 4 3 6 5 3 4 5 4
22 15 18 11 9 10 10 10 9 9 9 10 6 5 5 4 3 4 4 5 7 8 8 10 7 8 6 6 5 5 5 5 5 6 2 2 0 1 1 5 3 4 4
22 18 14 6 4 4 6 8 10 11 11 11 8 9 8 7 5 4 6 7 7 8 9 9 7 8 7 7 7 6 5 4 4 2 3 3 1 0 1 1 2 1 4
18 21 19 9 10 10 9 10 11 13 14 14 12 8 8 5 4 3 8 8 7 9 10 9 7 8 7 7 9 7 7 5 3 3 2 4 3 3 3 2 2 2 1
22 15 14 14 15 15 15 14 15 15 14 12 12 9 9 8 6 7 7 7 6 6 8 10 7 8 6 6 6 6 6 4 3 1 2 3 3 3 3 2 2 2 2
20 19 20 17 13 13 10 7 9 13 12 14 12 13 11 11 7 12 9 9 6 5 9 8 8 7 6 6 5 6 4 5 3 4 3 0 2 2 2 2 3 2 2
21 9 6 8 10 10 13 15 10 10 12 12 13 11 12 7 7 11 10 8 7 7 8 9 9 8 7 6 6 4 4 4 4 4 2 1 3 1 2 2 3 2 2
3 2 3 7 8 9 7 9 10 11 11 12 11 11 10 10 10 9 14 11 12 9 11 11 9 9 6 7 6 3 4 6 4 3 3 3 3 1 2 3 3 3 3
2 4 11 11 5 6 6 7 10 11 11 12 10 10 11 8 9 9 14 15 12 13 12 9 7 7 7 6 5 4 6 6 4 4 4 3 2 2 3 2 2 3 2
6 8 7 3 7 7 14 7 9 12 11 11 12 12 11 9 11 9 7 10 11 12 11 9 7 7 6 5 6 4 7 7 5 3 3 5 1 2 3 3 3 2 4
4 12 4 5 10 12 13 8 8 12 12 12 12 11 11 10 10 9 10 9 9 8 7 11 9 8 7 7 6 5 6 7 6 5 5 2 2 4 3 4 5 2 5
7 11 4 5 11 13 11 12 12 13 14 12 11 11 10 10 10 10 9 8 7 6 7 11 9 9 8 7 5 5 6 6 5 6 6 4 2 2 2 5 4 4 4
9 9 6 3 6 6 12 13 13 13 11 15 11 11 12 11 10 10 9 8 7 6 5 5 5 5 7 7 5 5 5 5 4 6 5 4 2 4 4 6 6 5 6
6 8 8 2 6 5 9 10 11 13 14 14 12 12 11 11 10 9 7 6 6 6 7 6 6 7 6 4 4 4 6 7 6 5 4 4 3 4 2 1 5 8 7
7 9 7 2 6 5 5 11 13 12 13 13 13 13 12 10 9 8 7 6 7 6 7 8 6 9 6 7 9 1 5 8 7 5 3 2 4 5 1 3 3 9 11
8 9 5 4 5 4 3 6 13 10 14 13 13 12 11 11 9 8 7 4 5 8 6 6 6 9 7 7 7 5 4 5 6 5 4 3 4 5 6 5 6 11 11
7 7 7 9 6 4 3 7 10 12 13 12 12 12 12 11 9 8 5 4 5 6 6 5 9 9 6 7 6 3 4 6 6 5 4 3 4 3 5 7 8 9 9
8 2 5 7 8 6 3 2 9 13 13 13 12 14 13 13 10 9 7 6 7 6 5 6 8 9 7 6 5 0 5 6 6 4 4 2 2 5 4 8 12 10 7
7 5 3 2 10 7 5 3 12 12 13 13 12 14 14 14 11 9 7 7 6 6 5 6 8 11 7 6 7 4 5 6 5 5 4 3 4 6 3 10 11 11 8
12 9 1 2 9 7 5 5 13 12 12 12 10 15 14 11 9 7 7 7 6 6 7 9 5 7 8 6 7 6 4 5 5 4 3 2 5 6 7 11 10 12 11
18 10 2 3 7 9 9 8 12 11 12 11 16 13 10 9 8 10 7 7 8 9 8 8 3 7 7 7 7 8 8 9 6 6 4 4 6 8 13 10 16 17 12
17 5 3 3 9 11 10 8 10 10 12 15 13 11 9 8 7 9 7 7 6 7 8 8 5 5 7 5 7 8 9 11 7 6 7 10 7 11 12 15 16 11 8
16 4 4 6 15 12 11 13 11 12 17 14 12 10 8 9 7 6 6 5 5 5 4 5 8 5 5 6 6 6 7 11 9 10 6 8 8 8 9 7 4 6 8
8 1 4 11 12 10 9 13 12 17 16 13 11 9 7 8 8 9 5 5 6 1 4 3 6 9 5 4 7 8 6 6 7 9 6 5 4 6 5 4 3 6 7
6 2 9 11 14 10 14 13 14 16 15 11 10 8 7 8 8 8 8 16 10 9 10 4 7 3 12 13 14 15 17 15 12 6 6 5 5 5 6 4 5 6 5
Wind_Direction
247 230 232 222 175 165 166 172 173 196 183 226 221 233 222 230 230 216 206 178 168 179 177 198 212 198 200 202 205 180 191 200 205 235 266 240 219 226 221 223 249 252 256
243 253 219 185 170 168 170 177 189 188 201 221 218 234 223 225 213 193 181 166 162 171 183 191 217 191 198 197 210 178 165 194 217 176 220 250 227 219 225 230 211 215 235
254 259 237 211 182 182 183 184 187 190 203 221 229 209 236 254 271 165 154 159 154 170 183 194 226 172 183 202 189 167 189 199 210 183 223 347 48 69 160 217 216 213 219
239 250 250 232 238 230 194 188 192 199 209 214 217 219 217 218 220 177 157 156 166 181 182 186 221 166 190 198 179 174 197 225 194 141 201 256 64 52 311 215 227 120 227
241 236 241 223 238 240 225 224 208 201 206 204 210 208 220 203 199 153 144 153 168 162 173 187 211 180 198 171 172 176 188 182 164 152 220 200 199 194 200 252 187 113 256
249 235 243 242 234 232 234 226 211 204 202 193 191 201 216 209 189 181 148 138 134 159 180 196 204 179 202 163 159 157 155 140 183 300 221 188 161 217 195 201 244 140 152
228 228 222 218 224 223 220 218 207 196 190 186 180 199 227 197 218 148 154 149 164 181 189 189 185 179 207 162 128 115 139 153 197 208 208 96 178 205 143 166 222 145 101
245 208 224 227 226 225 213 213 212 185 177 176 193 193 208 189 189 159 144 155 168 176 179 195 183 186 185 133 116 147 170 163 206 231 150 106 253 78 157 190 175 132 123
225 151 310 286 263 267 252 187 188 177 172 186 191 186 188 202 156 162 149 163 169 173 184 187 176 178 157 125 136 152 189 188 192 174 167 194 164 146 229 199 177 178 155
125 240 235 239 265 259 258 186 171 166 182 171 172 180 183 171 151 170 169 164 168 165 166 168 168 121 120 143 150 206 190 165 166 150 187 201 214 144 243 168 219 191 154
211 250 258 254 255 269 271 164 173 164 154 162 172 167 173 153 134 146 122 120 138 145 161 154 127 139 157 151 194 247 167 151 139 121 170 184 190 220 231 177 211 202 154
313 278 175 230 239 224 235 158 181 151 157 161 166 159 123 128 135 125 117 123 126 142 155 137 156 181 176 173 158 210 152 146 151 169 173 149 188 230 226 230 196 181 137
280 285 143 237 215 211 176 171 152 154 157 145 118 124 123 129 129 127 127 140 141 166 168 162 170 193 157 147 178 214 163 148 167 168 141 146 86 234 206 239 207 188 127
284 300 57 211 283 336 163 159 165 150 133 125 128 132 135 137 140 135 143 149 155 158 126 134 166 172 123 142 157 165 142 156 151 116 128 167 221 289 200 210 190 155 131
327 328 39 157 282 306 137 121 114 116 125 128 135 140 139 142 141 139 140 138 142 149 161 125 95 98 83 82 147 141 135 129 119 126 153 192 219 293 85 307 202 138 125
317 310 38 326 237 31 108 103 126 133 132 140 143 142 144 141 133 138 151 148 152 169 118 115 118 92 92 65 61 125 151 145 152 143 180 227 214 241 222 165 345 153 140
295 320 23 348 241 109 321 102 139 158 132 152 141 141 145 144 141 128 139 160 146 110 112 112 124 105 108 112 93 48 128 141 123 145 171 201 240 221 148 118 99 112 113
321 312 34 350 243 148 288 153 155 142 140 139 149 158 147 131 138 147 153 156 121 113 120 125 117 105 88 94 100 58 115 125 137 140 151 174 262 200 161 140 132 118 128
300 353 75 -0 254 198 205 227 157 143 150 157 161 154 148 144 147 163 172 126 122 136 154 126 117 112 103 105 86 324 123 128 124 132 131 192 252 87 44 150 111 97 74
357 29 82 12 222 199 181 291 151 159 159 159 169 156 139 147 158 160 133 123 149 148 111 115 97 101 120 95 64 19 118 131 128 117 109 31 18 82 60 127 123 114 119
312 298 70 188 267 199 202 258 156 165 162 161 149 110 127 138 139 139 133 146 156 126 114 112 116 127 125 88 66 36 159 138 128 133 113 80 93 93 101 123 127 129 132
291 286 137 286 236 202 206 238 159 169 162 154 115 116 134 139 144 133 160 148 133 132 120 110 115 114 95 98 67 52 66 130 145 134 121 105 101 99 90 96 122 121 122
285 290 190 234 205 213 203 196 161 178 128 110 114 131 134 118 142 147 142 127 145 145 147 150 149 143 127 104 82 59 64 57 91 107 111 113 107 91 100 127 125 127 119
277 177 192 251 199 199 196 156 182 144 115 125 125 129 121 138 151 148 144 140 154 174 187 162 144 134 142 140 131 124 100 81 86 102 99 102 82 85 112 122 139 124 130
263 261 225 260 199 194 213 149 188 129 127 137 126 125 134 116 88 66 12 114 43 313 183 159 150 143 155 152 159 141 128 120 118 120 115 105 95 120 131 134 82 118 130
281 262 262 229 205 217 148 165 138 133 129 132 126 140 134 134 126 116 86 45 57 48 56 100 118 60 120 121 104 109 112 130 156 116 115 113 121 130 133 141 131 138 136